Location: Muck Cross
(36.7179°N, 78.3678°W)
Time: 15:26:14
(UTC+00:00)

deb Explorer IX - Visible Passes

Search period start: 30 March 2023 00:00
Search period end: 09 April 2023 00:00
Orbit: 536 x 1029 km, 38.8° (Epoch: 28 March)

Date Brightness Start Highest point End Pass type
(mag) Time Alt. Az. Time Alt. Az. Time Alt. Az.
30 Mar ? 09:20:37 26° S 09:22:07 32° SSE 09:26:03 10° E visible
31 Mar ? 08:47:08 29° SE 08:47:08 29° SE 08:50:47 10° E visible
31 Mar ? 10:27:49 10° WSW 10:32:34 85° SSE 10:36:49 10° ENE visible
01 Apr ? 08:13:32 20° ESE 08:13:32 20° ESE 08:15:27 10° E visible
01 Apr ? 09:53:59 21° WSW 09:57:13 79° SSE 10:01:35 10° ENE visible
02 Apr ? 07:39:51 11° E 07:39:51 11° E 07:40:02 10° E visible
02 Apr ? 09:20:17 43° SW 09:21:49 73° SSE 09:26:18 10° ENE visible
03 Apr ? 08:46:30 66° SSE 08:46:30 66° SSE 08:50:59 10° ENE visible
03 Apr ? 10:27:31 10° W 10:32:23 68° N 10:36:41 10° E visible
04 Apr ? 08:12:39 37° E 08:12:39 37° E 08:15:36 10° ENE visible
04 Apr ? 09:53:05 17° W 09:56:52 71° N 10:01:18 10° ENE visible
05 Apr ? 07:38:42 19° E 07:38:42 19° E 07:40:08 10° E visible
05 Apr ? 09:19:07 35° W 09:21:16 74° N 09:25:52 10° ENE visible
06 Apr ? 08:45:07 70° WNW 08:45:36 78° N 08:50:24 10° ENE visible
06 Apr ? 10:26:47 10° WNW 10:31:49 74° N 10:36:13 10° E visible
07 Apr ? 08:11:04 54° ENE 08:11:04 54° ENE 08:14:52 10° ENE visible
07 Apr ? 09:51:30 13° WNW 09:56:08 72° N 10:00:40 10° E visible
08 Apr ? 07:36:59 28° ENE 07:36:59 28° ENE 07:39:16 10° ENE visible
08 Apr ? 09:17:25 26° WNW 09:20:22 71° N 09:25:05 10° E visible
